SCP
0 0 0 0 0 0 0 0 0 0 0 0 0 0 0 0 0 0 0 0 0 0 0 0 0 0 0 0 0 0 0 1
0 0 0 0 0 0 0 0 0 0 0 0 0 0 0 0 0 0 0 0 0 0 0 0 0 0 0 0 0 0 0 1
0 0 0 0 0 0 0 0 0 0 0 0 0 0 0 0 0 0 0 0 0 0 0 0 0 0 0 0 0 0 0 1
0 0 0 0 0 0 0 0 0 0 0 0 -0 -0 0 0 0 0 0 0 0 0 0 0 0 0 0 0 0 0 0 0
0 0 0 0 0 0 0 0 0 0 0 0 -0 -0 0 0 0 0 0 0 0 0 0 0 0 0 0 0 0 0 0 0
0 0 0 0 0 0 0 0 0 0 0 0 0 -0 0 0 0 0 0 0 -0 -0 -0 -0 0 0 0 0 0 0 0 0
0 0 0 0 0 0 0 0 0 0 0 0 0 0 0 0 0 0 0 0 0 -0 -0 -0 -0 0 0 0 0 0 0 0
0 0 0 0 0 0 0 0 0 0 0 0 0 0 0 0 0 0 0 0 0 0 0 0 0 0 0 0 0 0 0 0
0 0 0 0 0 0 0 0 0 0 0 0 0 0 0 0 0 0 0 0 0 0 0 -0 -0 0 0 0 0 0 0 0
0 0 0 0 0 0 0 0 0 0 0 0 0 0 0 0 0 0 0 0 0 0 0 0 0 0 0 0 0 0 0 -0
0 0 0 0 0 0 0 0 0 0 0 0 0 0 0 0 0 0 0 0 0 0 0 0 0 0 0 -0 0 0 0 0
0 0 0 0 0 0 0 0 0 0 0 0 0 0 0 0 0 0 0 0 0 0 0 0 0 -0 0 0 0 0 0 0
0 0 0 0 0 0 0 0 0 0 0 0 0 0 0 0 0 0 0 0 0 0 -0 0 0 0 0 0 0 0 0 0
0 0 0 0 0 0 0 0 0 0 0 0 0 0 0 0 0 0 -0 0 0 -0 0 -0 -0 0 0 0 0 0 0 0
0 0 0 0 0 0 0 0 0 0 0 0 0 0 0 0 0 -0 -0 -0 -0 0 0 -0 -0 0 0 0 0 0 0 0
0 0 0 0 0 0 0 0 0 0 0 0 0 0 0 0 0 0 -0 -0 0 0 -0 -0 -0 0 0 0 0 0 0 0
0 0 0 0 0 0 0 0 0 0 0 0 0 0 0 0 0 0 -0 -0 -0 -0 -0 -0 -0 0 0 0 0 0 0 0
0 0 0 0 0 0 0 0 0 0 0 0 0 0 0 0 0 0 -0 -0 -0 -0 -0 -0 -0 0 0 0 0 0 0 0
0 0 0 0 0 0 0 0 0 0 0 0 0 0 0 0 0 0 0 -0 -0 -0 -0 -0 0 0 0 0 0 0 0 0
0 0 0 0 0 0 0 0 0 0 0 0 0 0 0 0 0 0 -0 -0 -0 -0 -0 0 0 0 0 0 0 0 0 0
Wind_Speed_500mb
31 35 41 42 49 60 54 54 56 59 64 68 68 59 54 52 52 49 48 49 52 53 49 44 47 59 67 70 63 65 60 56
30 35 40 41 40 50 52 54 57 59 61 65 64 53 52 55 50 54 56 48 49 55 58 51 47 51 57 66 72 72 63 64
32 36 40 44 41 47 48 48 49 51 54 62 59 54 49 55 53 54 53 53 53 52 58 56 51 48 49 60 71 75 62 62
29 33 39 42 41 46 43 43 45 47 50 55 53 53 49 52 51 52 51 51 50 51 54 56 40 42 42 41 64 75 67 68
29 32 38 41 43 45 42 42 45 45 47 51 54 52 50 51 50 51 50 50 48 51 49 47 53 48 49 46 46 73 91 74
27 31 35 40 43 44 41 41 43 41 45 48 52 52 50 53 52 52 51 50 55 52 50 52 54 55 50 53 47 63 87 96
28 31 34 40 42 43 39 39 41 42 44 46 50 53 53 56 54 51 52 53 55 56 54 56 55 54 51 54 52 58 75 92
28 30 33 39 41 41 37 38 42 41 44 47 49 53 54 57 55 52 52 51 54 57 55 57 56 55 55 50 56 62 79 86
28 28 32 38 38 38 39 40 41 42 44 46 49 53 54 56 53 53 53 61 58 57 59 55 56 55 53 52 54 60 67 85
25 27 32 39 37 37 39 40 40 41 44 46 51 53 54 55 53 53 55 63 59 58 60 64 61 53 55 55 57 60 61 76
23 27 33 38 36 37 37 40 41 44 44 46 51 50 53 53 49 52 62 55 53 55 58 61 59 58 60 72 71 65 57 56
22 27 32 36 35 37 38 40 42 44 46 48 49 50 51 52 49 54 57 53 55 51 54 57 58 55 64 68 60 52 46 49
21 28 33 35 37 40 43 45 46 47 47 47 48 50 51 54 61 61 55 55 49 51 56 63 53 53 67 74 30 28 15 37
21 28 31 33 37 37 40 43 44 45 46 46 49 49 53 53 62 53 52 51 51 51 55 56 48 55 60 47 29 10 13 20
20 27 29 31 37 36 40 41 44 48 48 48 49 49 48 55 57 54 49 52 52 50 53 47 55 54 53 41 22 20 63 15
19 27 29 30 35 36 42 46 51 50 48 49 48 47 51 55 60 54 54 48 57 52 41 46 47 53 56 51 35 30 25 30
19 26 28 32 34 36 40 45 46 46 48 48 48 48 49 56 64 53 55 56 56 53 45 47 47 50 51 53 46 40 33 17
20 26 27 30 33 35 38 43 46 47 49 49 49 51 56 54 63 54 54 53 56 51 44 42 46 47 46 47 46 47 41 34
21 26 26 30 31 33 36 41 42 43 47 49 49 55 54 59 57 57 53 57 53 49 45 44 47 46 48 48 43 41 36 32
21 23 25 28 30 32 34 39 40 39 42 46 47 51 51 54 53 52 52 58 52 47 43 45 47 46 48 47 44 42 43 38
Wind_Direction_500mb
17 12 9 6 353 351 2 1 1 2 1 359 358 359 349 348 347 339 330 323 318 312 306 304 295 274 258 251 239 239 230 232
11 10 7 4 358 351 359 356 359 359 358 358 359 353 349 341 342 335 342 331 320 315 310 304 301 291 272 255 242 238 232 231
4 6 3 2 359 355 356 355 353 356 354 354 359 350 348 344 342 338 339 336 333 325 314 308 306 304 289 262 249 242 242 230
2 359 359 1 357 354 353 353 349 351 350 350 353 350 345 346 342 340 338 337 336 327 326 315 323 309 305 284 253 240 252 231
1 356 356 358 356 352 352 350 348 347 346 346 351 351 344 344 342 338 337 336 331 332 327 323 313 309 296 281 261 236 235 239
355 354 351 355 356 349 349 347 345 343 346 344 349 348 343 344 340 338 335 333 331 329 324 320 312 307 298 287 268 237 222 244
349 351 348 352 352 345 345 343 342 346 344 342 345 345 341 343 340 336 333 330 330 327 325 320 318 310 296 291 282 253 226 226
342 348 346 346 346 342 345 340 346 345 343 340 342 342 340 339 339 335 331 326 327 323 322 319 316 309 299 292 288 270 234 226
343 345 342 341 343 344 346 341 346 343 340 341 339 342 340 339 338 335 330 327 326 322 323 321 316 310 301 296 287 281 254 236
345 342 341 341 343 347 344 340 345 342 340 341 338 342 339 341 338 333 326 327 328 325 324 321 320 315 306 297 285 281 267 248
347 343 339 343 347 345 344 344 343 342 341 339 338 341 342 338 337 330 328 329 328 326 322 324 318 310 302 293 287 282 263 261
343 339 341 349 348 346 346 346 344 342 341 337 339 341 340 336 334 333 336 331 329 325 328 321 323 312 311 309 298 277 262 259
340 343 348 352 350 350 348 347 344 342 341 340 342 341 335 341 335 339 340 334 331 329 333 331 327 338 340 331 321 293 283 259
342 347 351 352 353 351 348 345 345 342 342 344 344 343 342 343 339 340 337 334 335 334 332 331 334 349 346 349 338 341 224 295
347 349 351 352 355 351 348 348 348 347 347 345 347 346 346 343 342 343 345 343 336 338 334 339 341 348 6 3 343 336 333 321
347 351 351 352 356 354 353 351 350 349 347 346 348 347 345 338 342 348 349 347 343 339 348 348 350 349 358 9 7 346 1 325
345 356 352 353 353 354 354 351 351 349 349 350 349 344 342 345 344 354 352 349 354 354 355 353 355 357 358 360 5 12 3 335
349 356 356 350 351 353 354 353 353 353 354 353 348 344 347 349 347 357 352 358 354 356 358 357 354 360 1 4 9 10 358 356
357 358 355 351 352 355 355 355 356 357 356 353 347 346 353 347 351 357 1 357 358 358 1 360 2 1 3 7 9 9 5 356
6 3 354 354 356 357 356 359 360 359 357 355 348 350 353 348 356 0 0 1 3 5 5 0 6 6 8 10 9 9 12 5
Wind_Speed_850mb
31 35 41 42 49 60 54 54 56 59 64 68 68 59 54 52 52 49 48 49 52 53 49 44 47 59 67 70 63 65 60 56
30 35 40 41 40 50 52 54 57 59 61 65 64 53 52 55 50 54 56 48 49 55 58 51 47 51 57 66 72 72 63 64
32 36 40 44 41 47 48 48 49 51 54 62 59 54 49 55 53 54 53 53 53 52 58 56 51 48 49 60 71 75 62 62
29 33 39 42 41 46 43 43 45 47 50 55 53 53 49 52 51 52 51 51 50 51 54 56 40 42 42 41 64 75 67 68
29 32 38 41 43 45 42 42 45 45 47 51 54 52 50 51 50 51 50 50 48 51 49 47 53 48 49 46 46 73 91 74
27 31 35 40 43 44 41 41 43 41 45 48 52 52 50 53 52 52 51 50 55 52 50 52 54 55 50 53 47 63 87 96
28 31 34 40 42 43 39 39 41 42 44 46 50 53 53 56 54 51 52 53 55 56 54 56 55 54 51 54 52 58 75 92
28 30 33 39 41 41 37 38 42 41 44 47 49 53 54 57 55 52 52 51 54 57 55 57 56 55 55 50 56 62 79 86
28 28 32 38 38 38 39 40 41 42 44 46 49 53 54 56 53 53 53 61 58 57 59 55 56 55 53 52 54 60 67 85
25 27 32 39 37 37 39 40 40 41 44 46 51 53 54 55 53 53 55 63 59 58 60 64 61 53 55 55 57 60 61 76
23 27 33 38 36 37 37 40 41 44 44 46 51 50 53 53 49 52 62 55 53 55 58 61 59 58 60 72 71 65 57 56
22 27 32 36 35 37 38 40 42 44 46 48 49 50 51 52 49 54 57 53 55 51 54 57 58 55 64 68 60 52 46 49
21 28 33 35 37 40 43 45 46 47 47 47 48 50 51 54 61 61 55 55 49 51 56 63 53 53 67 74 30 28 15 37
21 28 31 33 37 37 40 43 44 45 46 46 49 49 53 53 62 53 52 51 51 51 55 56 48 55 60 47 29 10 13 20
20 27 29 31 37 36 40 41 44 48 48 48 49 49 48 55 57 54 49 52 52 50 53 47 55 54 53 41 22 20 63 15
19 27 29 30 35 36 42 46 51 50 48 49 48 47 51 55 60 54 54 48 57 52 41 46 47 53 56 51 35 30 25 30
19 26 28 32 34 36 40 45 46 46 48 48 48 48 49 56 64 53 55 56 56 53 45 47 47 50 51 53 46 40 33 17
20 26 27 30 33 35 38 43 46 47 49 49 49 51 56 54 63 54 54 53 56 51 44 42 46 47 46 47 46 47 41 34
21 26 26 30 31 33 36 41 42 43 47 49 49 55 54 59 57 57 53 57 53 49 45 44 47 46 48 48 43 41 36 32
21 23 25 28 30 32 34 39 40 39 42 46 47 51 51 54 53 52 52 58 52 47 43 45 47 46 48 47 44 42 43 38
Wind_Direction_850mb
17 12 9 6 353 351 2 1 1 2 1 359 358 359 349 348 347 339 330 323 318 312 306 304 295 274 258 251 239 239 230 232
11 10 7 4 358 351 359 356 359 359 358 358 359 353 349 341 342 335 342 331 320 315 310 304 301 291 272 255 242 238 232 231
4 6 3 2 359 355 356 355 353 356 354 354 359 350 348 344 342 338 339 336 333 325 314 308 306 304 289 262 249 242 242 230
2 359 359 1 357 354 353 353 349 351 350 350 353 350 345 346 342 340 338 337 336 327 326 315 323 309 305 284 253 240 252 231
1 356 356 358 356 352 352 350 348 347 346 346 351 351 344 344 342 338 337 336 331 332 327 323 313 309 296 281 261 236 235 239
355 354 351 355 356 349 349 347 345 343 346 344 349 348 343 344 340 338 335 333 331 329 324 320 312 307 298 287 268 237 222 244
349 351 348 352 352 345 345 343 342 346 344 342 345 345 341 343 340 336 333 330 330 327 325 320 318 310 296 291 282 253 226 226
342 348 346 346 346 342 345 340 346 345 343 340 342 342 340 339 339 335 331 326 327 323 322 319 316 309 299 292 288 270 234 226
343 345 342 341 343 344 346 341 346 343 340 341 339 342 340 339 338 335 330 327 326 322 323 321 316 310 301 296 287 281 254 236
345 342 341 341 343 347 344 340 345 342 340 341 338 342 339 341 338 333 326 327 328 325 324 321 320 315 306 297 285 281 267 248
347 343 339 343 347 345 344 344 343 342 341 339 338 341 342 338 337 330 328 329 328 326 322 324 318 310 302 293 287 282 263 261
343 339 341 349 348 346 346 346 344 342 341 337 339 341 340 336 334 333 336 331 329 325 328 321 323 312 311 309 298 277 262 259
340 343 348 352 350 350 348 347 344 342 341 340 342 341 335 341 335 339 340 334 331 329 333 331 327 338 340 331 321 293 283 259
342 347 351 352 353 351 348 345 345 342 342 344 344 343 342 343 339 340 337 334 335 334 332 331 334 349 346 349 338 341 224 295
347 349 351 352 355 351 348 348 348 347 347 345 347 346 346 343 342 343 345 343 336 338 334 339 341 348 6 3 343 336 333 321
347 351 351 352 356 354 353 351 350 349 347 346 348 347 345 338 342 348 349 347 343 339 348 348 350 349 358 9 7 346 1 325
345 356 352 353 353 354 354 351 351 349 349 350 349 344 342 345 344 354 352 349 354 354 355 353 355 357 358 360 5 12 3 335
349 356 356 350 351 353 354 353 353 353 354 353 348 344 347 349 347 357 352 358 354 356 358 357 354 360 1 4 9 10 358 356
357 358 355 351 352 355 355 355 356 357 356 353 347 346 353 347 351 357 1 357 358 358 1 360 2 1 3 7 9 9 5 356
6 3 354 354 356 357 356 359 360 359 357 355 348 350 353 348 356 0 0 1 3 5 5 0 6 6 8 10 9 9 12 5